Weather in Alsunga

Latvia     56°58′52″N   21°33′36″E
temp.,
°C
wind,
m/s
gust,
m/s
humid.,
%
clouds,
%
prec.,
mm/h
press.,
hPa
HPBL,
m
17 september, fri
fri1700:00+10e61288100 0.1 1014494
03:00+10e51288100 0.6 1013436
06:00+10e5118292 0.6 1012455
09:00+10e61277100 0.6 1013554
12:00+10e61377100 0.0 1014559
15:00+9e61384100 0.1 1015522
18:00+10e61375100 0.3 1016712
21:00+10ene41170100 0.4 1017591
18 september, sat
sat1800:00+11ene51166100 0.0 1018643
03:00+8ene4117735 0.0 1019422
06:00+7ene5118241 0.0 1019422
09:00+8ene51174100 0.0 1019630
12:00+12ene6953100 0.0 10191127
15:00+13ene7104515 0.0 10191292
18:00+12ene610513 0.0 10191321
21:00+9ne512623 0.0 1020660
19 september, sun
sun1900:00+8ne512690 0.0 1020552
03:00+7ne512760 0.0 1020499
06:00+7ne512780 0.0 1020684
09:00+8ne612752 0.0 1020772
12:00+12ene710542 0.0 10201116
15:00+13ene69475 0.0 10201365
18:00+12ene58525 0.0 10201341
21:00+8ne411675 0.0 1021401
20 september, mon
mon2000:00+6ne410785 0.0 1022314
03:00+5ne410860 0.0 1022315
06:00+5ne410903 0.0 1022355
09:00+7ne410800 0.0 1023594
12:00+11ene57535 0.0 10221137
15:00+13ne56465 0.0 10221366
18:00+11ne56535 0.0 10221286
21:00+6ne387772 0.0 1023320
21 september, tue
tue2100:00+6ne377892 0.0 1023178
03:00+6ne357977 0.0 1023152
06:00+5ne358154 0.0 1023148
09:00+8ne366752 0.0 1023577
12:00+10nne455322 0.0 10221295
15:00+12nnw554913 0.0 10221457
18:00+10n56565 0.0 10231191
21:00+7nne4768100 0.0 1023548